Flag for U.S.A. Weather past 2 weeks in Freehold, New Jersey, U.S.A.

Now
52 °F

Mostly cloudy.


Feels Like: 47 °F
Forecast: 49 / 54 °F
Wind: 13 mph from Northwest

Location: Belmar-Farmdale

Current Time: Oct 23, 2014 at 2:57:34 PM

Latest Report: Oct 23, 2014 at 2:35 PM


Visibility: 7 mi

Pressure: 29.70 "Hg

Humidity: 82%

Dew point: 46 °F

Location of FreeholdLocation

Historic Weather in Freehold — Graph

°F

Freehold temperature yesterday

Maximum temperature yesterday: 57 °F (at 1:35 AM)
Minimum temperature yesterday: 52 °F (at 6:15 PM)
Average temperature yesterday: 54 °F

Past Weeks' High & Low Weather Summary

 TemperatureHumidityPressure
High75 °F (Oct 14, 12:35 PM)88% (Oct 11, 11:35 AM)30.35 "Hg (Oct 11, 11:35 AM)
Low36 °F (Oct 20, 3:35 AM)31% (Oct 9, 2:15 PM)29.59 "Hg (Oct 18, 2:55 PM)
Average59 °F68%29.96 "Hg
* Reported Oct 8 1:15 PM — Oct 23 1:55 PM, Freehold, Weather by CustomWeather, © 2014

Note: Actual official high and low records may vary slightly from our data, if they occured in-between our weather recording intervals... More about our weather records

Advertising

Freehold weather history for previous 24 hours

 ConditionsComfort  
Time TempWeatherWind HumidityBarometerVisibility
1:55 PM
Oct 23
52 °FMostly cloudy.14 mph77%29.70 "Hg10 mi
1:35 PM52 °FMostly cloudy.16 mph82%29.70 "Hg10 mi
1:15 PM52 °FMostly cloudy.14 mph82%29.70 "Hg10 mi
12:55 PM52 °FMostly cloudy.14 mph77%29.70 "Hg10 mi
12:35 PM52 °FMostly cloudy.21 mph77%29.70 "Hg10 mi
12:15 PM52 °FMore clouds than sun.16 mph77%29.70 "Hg10 mi
11:55 AM52 °FMostly cloudy.14 mph82%29.70 "Hg10 mi
11:35 AM52 °FMostly cloudy.15 mph82%29.70 "Hg10 mi
11:15 AM52 °FOvercast.17 mph82%29.70 "Hg10 mi
10:55 AM52 °FLow clouds.14 mph77%29.71 "Hg8 mi
10:35 AM52 °FMostly cloudy.13 mph77%29.70 "Hg10 mi
10:15 AM52 °FMore clouds than sun.14 mph77%29.70 "Hg10 mi
9:55 AM52 °FOvercast.13 mph77%29.70 "Hg10 mi
9:35 AM52 °FOvercast.15 mph77%29.70 "Hg10 mi
9:15 AM52 °FMostly cloudy.16 mph77%29.70 "Hg10 mi
8:55 AM52 °FOvercast.20 mph77%29.70 "Hg9 mi
8:35 AM52 °FOvercast.15 mph77%29.70 "Hg10 mi
7:55 AM52 °FOvercast.15 mph77%29.69 "Hg10 mi
7:35 AM52 °FOvercast.16 mph77%29.68 "Hg10 mi
7:15 AM52 °FOvercast.14 mph77%29.69 "Hg10 mi
6:55 AM52 °FOvercast.15 mph77%29.69 "Hg10 mi
6:35 AM52 °FMostly cloudy.13 mph77%29.69 "Hg10 mi
6:15 AM52 °FMostly cloudy.16 mph77%29.69 "Hg10 mi
5:55 AM52 °FOvercast.13 mph77%29.70 "Hg10 mi
5:35 AM52 °FOvercast.17 mph77%29.69 "Hg10 mi
5:15 AM52 °FOvercast.18 mph77%29.68 "Hg10 mi
4:55 AM52 °FOvercast.16 mph72%29.68 "Hg10 mi
4:35 AM52 °FOvercast.18 mph77%29.68 "Hg10 mi
4:15 AM52 °FOvercast.16 mph77%29.67 "Hg10 mi
3:55 AM52 °FOvercast.20 mph77%29.67 "Hg10 mi
3:35 AM52 °FOvercast.16 mph77%29.67 "Hg10 mi
3:15 AM52 °FOvercast.15 mph77%29.67 "Hg10 mi
2:55 AM52 °FOvercast.15 mph77%29.67 "Hg10 mi
2:35 AM52 °FOvercast.17 mph77%29.67 "Hg10 mi
1:55 AM52 °FMostly cloudy.13 mph77%29.68 "Hg10 mi
1:35 AM52 °FMostly cloudy.17 mph77%29.67 "Hg8 mi
1:15 AM50 °FMostly cloudy.15 mph82%29.68 "Hg10 mi
12:55 AM50 °FOvercast.17 mph82%29.69 "Hg5 mi
12:35 AM52 °FMostly cloudy.17 mph77%29.70 "Hg4 mi
12:15 AM52 °FMostly cloudy.17 mph77%29.71 "Hg9 mi
11:55 PM
Oct 22
52 °FMostly cloudy.16 mph77%29.71 "Hg10 mi
11:35 PM52 °FMostly cloudy.17 mph77%29.72 "Hg10 mi
11:15 PM52 °FMostly cloudy.17 mph77%29.72 "Hg8 mi
10:55 PM52 °FMostly cloudy.18 mph77%29.73 "Hg7 mi
10:35 PM52 °FMostly cloudy.16 mph77%29.73 "Hg7 mi
10:15 PM52 °FMostly cloudy.17 mph77%29.74 "Hg6 mi
9:55 PM52 °FMostly cloudy.18 mph77%29.74 "Hg8 mi
9:35 PM52 °FMostly cloudy.15 mph77%29.74 "Hg8 mi
9:15 PM52 °FMostly cloudy.17 mph77%29.75 "Hg9 mi
8:55 PM52 °FOvercast.17 mph77%29.76 "Hg8 mi
8:35 PM52 °FMostly cloudy.18 mph82%29.75 "Hg10 mi
8:15 PM52 °FMostly cloudy.15 mph77%29.76 "Hg7 mi
7:55 PM52 °FMostly cloudy.15 mph82%29.76 "Hg5 mi
7:35 PM52 °FLow clouds.16 mph82%29.77 "Hg10 mi
7:15 PM52 °FMostly cloudy.16 mph82%29.78 "Hg7 mi
6:55 PM52 °FMostly cloudy.17 mph82%29.78 "Hg7 mi
6:35 PM52 °FLow clouds.21 mph82%29.78 "Hg10 mi
6:15 PM52 °FCloudy.17 mph82%29.79 "Hg9 mi
5:55 PM54 °FCloudy.18 mph77%29.79 "Hg7 mi
5:35 PM54 °FCloudy.14 mph77%29.79 "Hg10 mi
5:15 PM54 °FMostly cloudy.13 mph77%29.79 "Hg10 mi
4:55 PM54 °FOvercast.15 mph77%29.79 "Hg10 mi
4:35 PM54 °FOvercast.14 mph77%29.79 "Hg10 mi
4:15 PM54 °FOvercast.16 mph77%29.80 "Hg10 mi
3:55 PM54 °FOvercast.18 mph82%29.80 "Hg9 mi
3:35 PM55 °FOvercast.14 mph77%29.80 "Hg10 mi
3:15 PM55 °FOvercast.15 mph77%29.80 "Hg10 mi
2:55 PM55 °FOvercast.17 mph77%29.80 "Hg10 mi
2:35 PM55 °FOvercast.14 mph77%29.80 "Hg10 mi
Weather by CustomWeather, © 2014

See weather overviewHow to use our weather pages